[[{"header":{"parameterUnit":"m.s-1","parameterCategory":1,"la1":30.2991,"la2":30.254,"lo1":-89.0895,"lo2":-89.0444,"dy":0.0017,"dx":0.0017,"nx":28,"ny":28,"refTime":"2024-09-25T09:00:00:Z","depth":0,"parameterNumber":2,"parameterNumberName":"U-component_of_WINDS"},"data":[0,0,0,0,0,0,0,0,0,0,0,0,0,0,0,0,0,0,0,0,0,0,0,0,0,0,0,0,0,0,0,0,0,0,0,0,0,0,0,0,0,0,0,0,0,0,0,0,0,0,0,0,0,0,0,0,0,0,5.2013,5.2014,0,5.2134,5.2136,5.2137,5.2037,5.2033,5.2029,5.2025,5.2155,5.2162,5.2169,0,0,0,0,0,0,0,0,0,0,0,0,0,5.17,5.1706,5.2013,5.2015,5.2016,5.2134,5.2136,5.2137,5.2038,5.2033,5.2028,5.2023,5.2152,5.2161,5.217,0,0,0,0,0,0,0,0,0,0,0,0,0,5.1831,5.1709,5.2013,5.1981,5.1979,5.2134,5.2136,5.2138,5.2039,5.2033,5.2026,5.2021,5.2149,5.216,5.2171,5.2366,0,0,5.2205,5.221,0,0,0,0,0,0,0,0,5.1823,5.1842,5.1984,5.1983,5.1981,5.2064,5.2073,5.2215,5.2041,5.2017,5.2025,5.2017,5.213,5.2142,5.2179,5.2372,5.2378,5.2206,5.2213,5.2217,5.2221,0,0,0,0,0,0,0,5.1814,5.1836,5.2061,5.1986,5.1985,5.1962,5.1973,5.2099,5.2107,5.2018,5.2011,5.2027,5.2128,5.2169,5.2181,5.2379,5.2206,5.2215,5.2222,5.2227,5.2739,5.2745,0,0,0,0,0,0,5.1808,5.1829,5.2057,5.2065,5.1885,5.1972,5.1985,5.2044,5.2106,5.2109,5.2032,5.2021,5.2153,5.2169,5.2186,5.2418,5.2217,5.2228,5.2234,5.2732,5.274,5.2748,0,0,0,0,0,0,5.1801,5.1829,5.2052,5.1945,5.1972,5.1984,5.2051,5.205,5.209,5.2116,5.2117,5.2071,5.2149,5.217,5.2322,5.2421,5.2233,5.2243,5.2724,5.2734,5.2744,5.2885,0,0,0,0,0,0,5.1793,5.1827,5.19,5.1948,5.1978,5.2185,5.2057,5.2057,5.2109,5.2096,5.2153,5.2157,5.2145,5.2306,5.2333,5.2433,5.2251,5.2715,5.2728,5.2741,5.2871,5.2899,5.2922,0,0,0,0,0,5.1782,5.1936,5.1905,5.1933,5.2069,5.2191,5.2209,5.219,5.2117,5.2192,5.2208,5.2155,5.2406,5.2322,5.2351,5.2457,5.2708,5.2725,5.274,5.286,5.2893,5.2922,0,0,0,0,0,0,5.1903,5.1942,5.1907,5.2081,5.2133,5.2174,5.2267,5.2226,5.2302,5.2288,5.2263,5.2277,5.2437,5.2462,5.2368,5.2649,5.2546,5.2568,5.2627,5.2659,5.2684,5.2675,5.2261,0,0,0,0,0,5.1949,5.2043,5.2073,5.2224,5.2251,5.2255,5.2307,5.2289,5.2343,5.2365,5.2392,5.2448,5.2539,5.26,5.2686,5.2874,5.2886,5.2961,5.2987,5.3007,5.3027,5.313,5.3164,5.2799,5.2799,5.2799,0,0,5.2047,5.208,5.2141,5.2249,5.2287,5.2386,5.2274,5.2384,5.2459,5.2382,5.2526,5.2549,5.261,5.2781,5.2857,5.2806,5.313,5.3027,5.3044,5.3053,5.3149,5.3184,5.3214,5.281,5.2808,5.2806,0,0,5.2276,5.231,5.2439,5.2479,5.2538,5.2539,5.257,5.2617,5.2629,5.2773,5.2717,5.2806,5.2963,5.3009,5.3053,5.3299,5.3253,5.3327,5.3461,5.3561,5.359,5.3615,5.3704,5.3736,5.3347,5.3347,5.3348,0,5.2391,5.2536,5.2511,5.2625,5.2675,5.2608,5.2739,5.278,5.2865,5.2901,5.2842,5.3038,5.3075,5.3256,5.3315,5.3353,5.3389,5.3321,5.3587,5.3612,5.3636,5.372,5.3753,5.3356,5.3355,5.3354,5.3353,0,5.2675,5.2777,5.2875,5.2956,5.3016,5.3139,5.3134,5.3198,5.3174,5.3182,5.333,5.3371,5.3464,5.3505,5.3483,5.3683,5.365,5.359,5.3486,5.368,5.3758,5.379,5.3369,5.3365,5.3363,5.3361,0,0,5.2985,5.3049,5.3086,5.3122,5.3181,5.3261,5.3381,5.3469,5.3525,5.3586,5.3687,5.3821,5.3765,5.3815,5.3798,5.3886,5.4079,5.3815,5.3816,5.3863,5.4303,5.4349,5.4386,5.4049,5.4055,5.4059,5.4298,0,5.3217,5.3423,5.3404,5.3601,5.3695,5.3633,5.3737,5.3786,5.3797,5.388,5.3892,5.3988,5.3907,5.3937,5.402,5.4038,5.4167,5.402,5.4144,5.4149,5.4132,5.4427,5.4476,5.47,5.4329,5.4334,5.4338,0,5.3516,5.3585,5.379,5.3835,5.3874,5.3968,5.4048,5.4128,5.4182,5.4184,5.4239,5.4207,5.4329,5.4221,5.439,5.4291,5.434,5.4356,5.4364,5.4376,5.4256,5.4449,5.4771,5.4805,5.4386,5.4382,5.4379,0,5.3722,5.3867,5.4008,5.4041,5.4097,5.4164,5.4191,5.4239,5.4293,5.4364,5.4399,5.4483,5.453,5.4597,5.4589,5.4511,5.4761,5.4652,5.4767,5.4768,5.4824,5.4821,5.516,5.4854,5.4854,5.4853,5.4852,0,5.3984,5.4113,5.4102,5.4189,5.4332,5.4308,5.4451,5.447,5.4513,5.4604,5.4555,5.4642,5.4625,5.4713,5.4708,5.4849,5.487,5.4876,5.4873,5.4881,5.4881,5.4914,5.4899,5.4862,5.486,5.4858,5.4857,0,5.424,5.4237,5.4388,5.4427,5.444,5.4544,5.4578,5.4662,5.4667,5.4784,5.481,5.482,5.492,5.4918,5.5033,5.5029,5.5203,5.5182,5.5184,5.518,5.5296,5.5285,5.5669,5.5718,5.538,5.5383,5.5386,0,5.4408,5.4505,5.4554,5.4611,5.4641,5.4733,5.4788,5.4769,5.4829,5.4898,5.4973,5.5068,5.5143,5.5307,5.5326,5.5413,5.5395,5.5523,5.5408,5.5412,5.5398,5.5393,5.5403,5.5546,5.555,5.5553,5.5555,0,5.4707,5.47,5.478,5.486,5.4926,5.4989,5.5046,5.5096,5.5083,5.5153,5.5253,5.5312,5.5427,5.5523,5.5607,5.5636,5.5595,5.5591,5.5623,5.5632,5.563,5.5634,5.5247,5.5583,5.558,5.5578,5.5577,5.5576,5.4924,5.5008,5.5055,5.5146,5.5187,5.5241,5.5321,5.5336,5.5419,5.5511,5.5495,5.5608,5.566,5.5768,5.5805,5.5894,5.5849,5.5895,5.5906,5.5918,5.5931,5.5615,5.591,5.5909,5.5908,5.5907,5.5907,0,5.5222,5.5249,5.5332,5.5413,5.5485,5.5436,5.5497,5.5561,5.5661,5.5712,5.5786,5.5902,5.5995,5.602,5.611,5.6176,5.616,5.6201,5.6196,5.6204,5.5966,5.593,5.6213,5.6213,5.6212,5.6212,5.6212,5.6212,5.5385,5.5523,5.5523,5.5681,5.5708,5.5817,5.5856,5.5906,5.5947,5.6078,5.6154,5.6169,5.621,5.6302,5.6385,5.639,5.6426,5.6475,5.6473,5.6251,5.6221,5.6191,5.6158,5.6483,5.6483,5.6703,5.6705,5.6707]},{"header":{"parameterUnit":"m.s-1","parameterCategory":1,"la1":30.2991,"la2":30.254,"lo1":-89.0895,"lo2":-89.0444,"dy":0.0017,"dx":0.0017,"nx":28,"ny":28,"refTime":"2024-09-25T09:00:00:Z","depth":0,"parameterNumber":3,"parameterNumberName":"V-component_of_WINDS"},"data":[0,0,0,0,0,0,0,0,0,0,0,0,0,0,0,0,0,0,0,0,0,0,0,0,0,0,0,0,0,0,0,0,0,0,0,0,0,0,0,0,0,0,0,0,0,0,0,0,0,0,0,0,0,0,0,0,0,0,-3.1662,-3.1665,0,-3.1919,-3.1922,-3.1925,-3.1991,-3.199,-3.1988,-3.1987,-3.2257,-3.2266,-3.2275,0,0,0,0,0,0,0,0,0,0,0,0,0,-3.1236,-3.1244,-3.1662,-3.1665,-3.1668,-3.1918,-3.1922,-3.1926,-3.1992,-3.199,-3.1988,-3.1986,-3.2255,-3.2265,-3.2275,0,0,0,0,0,0,0,0,0,0,0,0,0,-3.145,-3.1246,-3.1661,-3.1731,-3.174,-3.1918,-3.1922,-3.1926,-3.1992,-3.199,-3.1987,-3.1985,-3.2251,-3.2264,-3.2277,-3.2406,0,0,-3.2317,-3.2322,0,0,0,0,0,0,0,0,-3.1438,-3.1466,-3.1718,-3.1727,-3.1737,-3.192,-3.1871,-3.2087,-3.1993,-3.1897,-3.1987,-3.1984,-3.2148,-3.2169,-3.2223,-3.2418,-3.243,-3.2318,-3.2326,-3.2331,-3.2335,0,0,0,0,0,0,0,-3.1423,-3.1455,-3.1764,-3.1721,-3.1733,-3.1752,-3.178,-3.1913,-3.2033,-3.1905,-3.191,-3.1939,-3.2153,-3.221,-3.223,-3.2434,-3.2318,-3.2329,-3.2337,-3.2342,-3.275,-3.2753,0,0,0,0,0,0,-3.1395,-3.1442,-3.1756,-3.1771,-3.1578,-3.1762,-3.1793,-3.1864,-3.2031,-3.2055,-3.1941,-3.1941,-3.2189,-3.2214,-3.224,-3.2403,-3.2331,-3.2344,-3.2351,-3.2747,-3.2751,-3.2754,0,0,0,0,0,0,-3.1385,-3.1422,-3.1745,-3.1608,-3.1651,-3.1772,-3.1851,-3.187,-3.1928,-3.2059,-3.2081,-3.1977,-3.2188,-3.2221,-3.2364,-3.2413,-3.2349,-3.2361,-3.2743,-3.2748,-3.2752,-3.2728,0,0,0,0,0,0,-3.1373,-3.1418,-3.1467,-3.1609,-3.1658,-3.1863,-3.1854,-3.1877,-3.1949,-3.1952,-3.2099,-3.2121,-3.2189,-3.2344,-3.2377,-3.243,-3.2372,-3.274,-3.2746,-3.2751,-3.2725,-3.2732,-3.2737,0,0,0,0,0,-3.1358,-3.1451,-3.1469,-3.1506,-3.172,-3.1865,-3.1894,-3.1968,-3.1953,-3.2004,-3.2088,-3.2116,-3.2402,-3.2358,-3.2395,-3.2453,-3.2737,-3.2744,-3.275,-3.2723,-3.273,-3.2737,0,0,0,0,0,0,-3.1315,-3.1471,-3.1492,-3.1634,-3.1736,-3.1876,-3.1942,-3.1973,-3.2083,-3.2081,-3.2171,-3.2204,-3.234,-3.2411,-3.2359,-3.2587,-3.257,-3.2584,-3.2536,-3.2544,-3.255,-3.253,-3.2382,0,0,0,0,0,-3.1321,-3.1423,-3.1555,-3.1668,-3.1718,-3.1821,-3.1887,-3.1935,-3.2045,-3.2089,-3.2183,-3.2291,-3.2405,-3.2479,-3.2591,-3.2736,-3.277,-3.2794,-3.28,-3.2804,-3.2816,-3.2899,-3.2912,-3.2776,-3.2776,-3.2776,0,0,-3.1337,-3.1435,-3.1494,-3.1662,-3.1746,-3.1852,-3.1857,-3.1969,-3.2049,-3.2107,-3.2246,-3.2319,-3.2446,-3.259,-3.2659,-3.2653,-3.2861,-3.2812,-3.2814,-3.2825,-3.2907,-3.292,-3.2931,-3.2781,-3.278,-3.2779,0,0,-3.142,-3.1503,-3.1606,-3.169,-3.1816,-3.1885,-3.1909,-3.2045,-3.2095,-3.2236,-3.2282,-3.238,-3.2574,-3.2663,-3.2733,-3.2849,-3.2879,-3.2883,-3.2913,-3.2994,-3.3004,-3.3014,-3.3057,-3.3071,-3.2894,-3.2894,-3.2894,0,-3.1424,-3.1583,-3.1656,-3.1766,-3.1839,-3.1893,-3.2,-3.2079,-3.2236,-3.2287,-3.2278,-3.2523,-3.2612,-3.2778,-3.2806,-3.2861,-3.2894,-3.2867,-3.2996,-3.3007,-3.3018,-3.3059,-3.3075,-3.2894,-3.2894,-3.2894,-3.2894,0,-3.1582,-3.1692,-3.1761,-3.1908,-3.1989,-3.2097,-3.2189,-3.2263,-3.2304,-3.2374,-3.2518,-3.2626,-3.2762,-3.2805,-3.2847,-3.2978,-3.2971,-3.2978,-3.2962,-3.3029,-3.307,-3.3086,-3.2894,-3.2894,-3.2894,-3.2894,0,0,-3.1646,-3.1832,-3.1856,-3.1924,-3.2067,-3.2155,-3.2266,-3.2396,-3.2458,-3.2565,-3.2662,-3.2825,-3.2832,-3.2912,-3.2965,-3.3035,-3.3122,-3.3035,-3.3039,-3.3048,-3.3274,-3.3268,-3.3286,-3.3142,-3.3145,-3.3148,-3.3264,0,-3.1748,-3.1944,-3.2014,-3.2178,-3.2281,-3.2334,-3.2431,-3.253,-3.2599,-3.2698,-3.2775,-3.289,-3.289,-3.2939,-3.301,-3.3095,-3.3169,-3.3088,-3.3236,-3.324,-3.3203,-3.3307,-3.3301,-3.3405,-3.328,-3.3283,-3.3285,0,-3.1892,-3.1998,-3.2171,-3.2301,-3.2347,-3.2433,-3.2558,-3.2651,-3.2767,-3.2812,-3.29,-3.2948,-3.3069,-3.3044,-3.3214,-3.3157,-3.3222,-3.3273,-3.3279,-3.3297,-3.3267,-3.3329,-3.344,-3.3456,-3.3311,-3.3309,-3.3307,0,-3.1923,-3.2109,-3.2236,-3.2293,-3.2448,-3.2507,-3.2575,-3.2687,-3.2761,-3.2871,-3.292,-3.3044,-3.3112,-3.3208,-3.3289,-3.3264,-3.3451,-3.3434,-3.3494,-3.3492,-3.3533,-3.3529,-3.3657,-3.3572,-3.3572,-3.3571,-3.3571,0,-3.2029,-3.2133,-3.2252,-3.2331,-3.2449,-3.2529,-3.2646,-3.2718,-3.2817,-3.2913,-3.2967,-3.3056,-3.3157,-3.326,-3.3324,-3.3455,-3.3486,-3.3527,-3.3544,-3.3523,-3.3518,-3.3568,-3.3563,-3.3576,-3.3575,-3.3574,-3.3573,0,-3.2084,-3.2167,-3.231,-3.2444,-3.248,-3.2562,-3.2679,-3.2759,-3.2828,-3.2949,-3.2982,-3.3093,-3.3217,-3.3307,-3.3468,-3.3511,-3.3653,-3.3668,-3.3613,-3.3621,-3.3677,-3.3671,-3.3843,-3.387,-3.3764,-3.3765,-3.3766,0,-3.2147,-3.2228,-3.237,-3.2436,-3.2503,-3.2609,-3.2684,-3.2767,-3.2843,-3.298,-3.3044,-3.3171,-3.3277,-3.3474,-3.3571,-3.3695,-3.3714,-3.3766,-3.3734,-3.3711,-3.3717,-3.3711,-3.3721,-3.3771,-3.3772,-3.3772,-3.3773,0,-3.225,-3.2287,-3.2391,-3.251,-3.2597,-3.2695,-3.2794,-3.2847,-3.2947,-3.3031,-3.3156,-3.3238,-3.3402,-3.3528,-3.3661,-3.3735,-3.3772,-3.3782,-3.3803,-3.3784,-3.3748,-3.3769,-3.3627,-3.3778,-3.3777,-3.3777,-3.3777,-3.3777,-3.2313,-3.2387,-3.2498,-3.2612,-3.2695,-3.2786,-3.2868,-3.2947,-3.3052,-3.3189,-3.3233,-3.3364,-3.3479,-3.3661,-3.3736,-3.3841,-3.384,-3.3869,-3.3877,-3.3884,-3.3883,-3.373,-3.3866,-3.3866,-3.3866,-3.3866,-3.3866,0,-3.242,-3.2493,-3.2597,-3.2733,-3.2824,-3.2846,-3.2958,-3.3033,-3.3146,-3.3249,-3.3351,-3.3497,-3.362,-3.3726,-3.3854,-3.3919,-3.3939,-3.395,-3.3947,-3.3963,-3.3877,-3.3846,-3.3931,-3.3931,-3.3931,-3.3931,-3.3931,-3.3931,-3.2486,-3.2613,-3.2663,-3.2833,-3.2907,-3.3033,-3.3095,-3.3181,-3.3263,-3.3421,-3.3522,-3.359,-3.3695,-3.3831,-3.3946,-3.3974,-3.402,-3.4026,-3.4059,-3.3977,-3.3969,-3.3962,-3.3934,-3.4035,-3.4035,-3.4137,-3.4138,-3.4139]}]]